Weather Roundup
Issued by NWS

Home | Current Version | Previous Version | Text Only | Print | Product List | Glossary On
Versions: 1 2 3 4 5 6 7 8 9 10 11 12 13 14 15 16 17 18 19 20 21 22 23 24 25 26 27 28 29 30 31 32 33 34 35 36 37 38 39 40 41 42 43 44 45 46 47 48 49 50
000
NZUS93 KARX 200210
HRRWXR

CURRENT HOURLY OBSERVATIONS ACROSS
MUCH OF THE UPPER MISSISSIPPI VALLEY
NATIONAL WEATHER SERVICE LA CROSSE WI
800 PM CST THU JAN 19 2017


...SOUTHEAST MINNESOTA...


CITY           SKY/WX    TMP DP  RH WIND       PRES   REMARKS
ROCHESTER      CLOUDY    34  33  96 E7        29.72F WCI  28
ROCHESTER/MAYO CLOUDY    36  36 100 E7        29.73F WCI  30
WINONA         CLOUDY    34  32  93 CALM      29.77F FOG
AUSTIN         LGT RAIN  36  32  87 E7        29.71F WCI  30
ALBERT LEA     CLOUDY    36  36 100 SE5       29.70F FOG     WCI  32
DODGE CENTER   DRIZZLE   34  34 100 CALM      29.71F
PRESTON        LGT RAIN  34  32  94 SE7       29.73F WCI  27
OWATONNA       DRIZZLE   36  34  93 SE7       29.72S WCI  30
FARIBAULT      RAIN      36  34  93 S3        29.73S
$$

...ELSEWHERE IN MINNESOTA...


CITY           SKY/WX    TMP DP  RH WIND       PRES   REMARKS
MINNEAPOLIS    CLOUDY    36  31  82 SE7       29.73F WCI  30
INTNL FALLS    CLEAR     37  34  89 VRB6      29.63S FOG     WCI  32
DULUTH         CLEAR     34  32  92 SE7       29.73F WCI  28
RED WING       CLOUDY    37  32  81 SE9       29.74F WCI  31
REDWOOD FALLS  CLOUDY    34  32  92 SE7       29.68S FOG     WCI  28
MANKATO        MIX PCPN  34  32  93 SE6       29.71F FOG     WCI  29
WORTHINGTON    LGT RAIN  34  34 100 SE7       29.67S VSB 1/2 WCI  28
FAIRMONT       CLOUDY    34  33  96 SE8       29.70S FOG     WCI  27
$$

...SOUTHWEST WISCONSIN...


CITY           SKY/WX    TMP DP  RH WIND       PRES   REMARKS
LA CROSSE      LGT RAIN  39  35  86 E5        29.76F
PRAIRIE DU CHI DRIZZLE   36  35  96 E6        29.76F WCI  31
BOSCOBEL       LGT RAIN  37  35  92 NE5       29.78F FOG     WCI  33
LONE ROCK      LGT RAIN  35  34  96 E7        29.79F FOG     WCI  29
PLATTEVILLE    CLOUDY    35  35 100 E10       29.75F WCI  27
FORT MC COY    CLOUDY    34  34  99 E3        29.78F FOG
CAMP DOUGLAS   CLOUDY    34  32  93 SE6       29.78S WCI  29
MAUSTON-NEW LI CLOUDY    35  33  94 SE5       29.78S FOG     WCI  31
VIROQUA        CLOUDY    34  34 100 E7        29.75F WCI  28
WIS DELLS      LGT RAIN  34  33  96 E3        29.79F VSB 1
$$

...ELSEWHERE IN WISCONSIN...


CITY           SKY/WX    TMP DP  RH WIND       PRES   REMARKS
MILWAUKEE      LGT RAIN  37  36  96 SE6       29.83F VSB 1/4 WCI  32
MADISON        LGT RAIN  35  34  96 NE3       29.81F FOG
GREEN BAY      FOG       34  34 100 E3        29.86F VSB 1/4
EAU CLAIRE     CLOUDY    36  32  85 NE5       29.77F WCI  32
BLACK RVR FLS  LGT RAIN  37  33  85 NE5       29.76F WCI  33
MEDFORD        FOG       31  31  99 SE3       29.78F VSB 1/2
WAUSAU         FOG       31  31 100 E6        29.79F VSB 1/2 WCI  25
WIS RAPIDS     PTCLDY    33  32  96 E5        29.80F WCI  29
MARSHFIELD     PTCLDY    32  30  92 E7        29.76F FOG     WCI  26
RICE LAKE      CLOUDY    37  32  84 SE6       29.78S WCI  32
$$

...NORTHEAST IOWA...


CITY           SKY/WX    TMP DP  RH WIND       PRES   REMARKS
WATERLOO       CLOUDY    36  35  96 SE9       29.71S FOG     WCI  29
DUBUQUE        MIX PCPN  36  35  96 E7        29.75S FOG     WCI  30
DECORAH        CLOUDY    36  36 100 E8        29.72F FOG     WCI  29
MASON CITY     FOG       33  33 100 SE5       29.71F VSB 1/4 WCI  29
CHARLES CITY   CLOUDY    36  36 100 SE9       29.71F FOG     WCI  29
OELWEIN        CLOUDY    36  36 100 E10       29.71F FOG     WCI  28
$$

...ELSEWHERE IN IOWA...


CITY           SKY/WX    TMP DP  RH WIND       PRES   REMARKS
DES MOINES     DRZL/FOG  38  37  97 E5        29.69S VSB 1/2 WCI  34
IOWA CITY      CLOUDY    39  37  92 E8        29.73F WCI  33
FORT DODGE     CLOUDY    36  34  93 E6        29.69F VSB 1/2 WCI  31
MARSHALLTOWN   FOG       35  35 100 E6        29.69F VSB 1/4 WCI  30
CEDAR RAPIDS   CLOUDY    36  36 100 E9        29.70F FOG     WCI  29
$$

...NORTHERN ILLINOIS...


CITY           SKY/WX    TMP DP  RH WIND       PRES   REMARKS
CHICAGO-OHARE  LGT RAIN  38  37  97 E8        29.80F FOG     WCI  32
CHICAGO-MIDWAY LGT RAIN  38  36  92 E9        29.80F FOG     WCI  31
MOLINE         CLOUDY    38  36  92 E9        29.73F FOG     WCI  31
ROCKFORD       LGT RAIN  39  37  92 E5        29.80F FOG
PEORIA         CLOUDY    40  40 100 E5        29.74F FOG
$$

NOTE: "FAIR" INDICATES FEW OR NO CLOUDS BELOW 12,000 FEET WITH NO
SIGNIFICANT WEATHER AND/OR OBSTRUCTIONS TO VISIBILITY. WIND
SPEEDS ARE IN MILES-PER-HOUR.




USA.gov is the U.S. government's official web portal to all federal, state and local government web resources and services.